• In Uzbekistan
  • List of Countries
  • For 7 days
  • Water Temperature
  • Satellite Maps
  • Weather Map
  • Weather Widgets
  • user-avatar
    Login

    Hourly Weather Eisenstadt

    Today, 26 February, Sunday

    Time Temperature Precipitation Wind Pressure Humidity
    00:00 -1°C° 0 mm 3 mps 726 mmHg 75%
    01:00 -2°C° 0 mm 2 mps 726 mmHg 76%
    02:00 -2°C° 0 mm 3 mps 726 mmHg 75%
    03:00 -2°C° 0 mm 3 mps 725 mmHg 73%
    04:00 -2°C° 0 mm 3 mps 725 mmHg 72%
    05:00 -2°C° 0 mm 3 mps 724 mmHg 72%
    06:00 -2°C° 0 mm 3 mps 724 mmHg 72%
    07:00 -2°C° 0 mm 3 mps 724 mmHg 71%
    08:00 0°C° 0 mm 3 mps 724 mmHg 66%
    09:00 +1°C° 0 mm 4 mps 724 mmHg 60%
    10:00 +4°C° 0 mm 4 mps 724 mmHg 54%
    11:00 +5°C° 0 mm 3 mps 724 mmHg 53%
    12:00 +7°C° 0 mm 3 mps 723 mmHg 51%
    13:00 +8°C° 0 mm 2 mps 723 mmHg 49%
    14:00 +7°C° 0 mm 2 mps 723 mmHg 54%
    15:00 +7°C° 0 mm 2 mps 723 mmHg 59%
    16:00 +6°C° 0 mm 2 mps 722 mmHg 65%
    17:00 +5°C° 0 mm 2 mps 722 mmHg 68%
    18:00 +4°C° 0 mm 2 mps 722 mmHg 71%
    19:00 +3°C° 0 mm 2 mps 722 mmHg 74%
    20:00 +3°C° 0 mm 2 mps 722 mmHg 74%
    21:00 +3°C° 0 mm 2 mps 722 mmHg 74%
    22:00 +4°C° 0 mm 1 mps 722 mmHg 73%
    23:00 +3°C° 0 mm 1 mps 722 mmHg 73%

    Tomorrow, 27 February, Monday

    Time Temperature Precipitation Wind Pressure Humidity
    00:00 +3°C° 0 mm 1 mps 722 mmHg 74%
    01:00 +3°C° 0 mm 1 mps 722 mmHg 74%
    02:00 +3°C° 0 mm 1 mps 721 mmHg 74%
    03:00 +2°C° 0 mm 2 mps 721 mmHg 74%
    04:00 +1°C° 0 mm 2 mps 721 mmHg 75%
    05:00 +1°C° 0 mm 2 mps 721 mmHg 75%
    06:00 +1°C° 0 mm 2 mps 720 mmHg 76%
    07:00 +1°C° 0 mm 2 mps 720 mmHg 76%
    08:00 +3°C° 0 mm 2 mps 720 mmHg 73%
    09:00 +4°C° 0 mm 3 mps 720 mmHg 69%
    10:00 +5°C° 0 mm 3 mps 720 mmHg 65%
    11:00 +7°C° 0 mm 4 mps 720 mmHg 65%
    12:00 +8°C° 0 mm 4 mps 719 mmHg 65%
    13:00 +9°C° 0 mm 5 mps 719 mmHg 65%
    14:00 +9°C° 0 mm 5 mps 718 mmHg 67%
    15:00 +9°C° 0 mm 5 mps 717 mmHg 69%
    16:00 +9°C° 0 mm 5 mps 717 mmHg 71%
    17:00 +7°C° 0 mm 5 mps 716 mmHg 75%
    18:00 +6°C° 0 mm 5 mps 716 mmHg 80%
    19:00 +5°C° 0 mm 5 mps 716 mmHg 84%
    20:00 +3°C° 0 mm 5 mps 715 mmHg 84%
    21:00 +3°C° 0 mm 4 mps 715 mmHg 84%
    22:00 +3°C° 0 mm 4 mps 714 mmHg 83%
    23:00 +1°C° 0 mm 4 mps 714 mmHg 84%

    Day after tomorrow, 28 February, Tuesday

    Time Temperature Precipitation Wind Pressure Humidity
    00:00 +1°C° 0 mm 4 mps 714 mmHg 84%
    01:00 +1°C° 0 mm 4 mps 713 mmHg 84%
    02:00 +1°C° 0 mm 5 mps 713 mmHg 84%
    03:00 0°C° 0 mm 5 mps 712 mmHg 84%
    04:00 0°C° 0 mm 5 mps 712 mmHg 84%
    05:00 +1°C° 0 mm 5 mps 712 mmHg 84%
    06:00 +1°C° 0 mm 6 mps 711 mmHg 83%
    07:00 +1°C° 0 mm 6 mps 711 mmHg 82%
    08:00 +3°C° 0 mm 7 mps 712 mmHg 77%
    09:00 +5°C° 0 mm 8 mps 712 mmHg 72%
    10:00 +7°C° 0 mm 9 mps 713 mmHg 67%
    11:00 +9°C° 0 mm 7 mps 713 mmHg 65%
    12:00 +9°C° 0 mm 6 mps 713 mmHg 63%
    13:00 +10°C° 0 mm 5 mps 713 mmHg 60%
    14:00 +9°C° 0.1 mm 5 mps 712 mmHg 65%
    15:00 +9°C° 0.1 mm 6 mps 712 mmHg 70%
    16:00 +8°C° 0.1 mm 6 mps 711 mmHg 75%
    17:00 +8°C° 0 mm 7 mps 710 mmHg 77%
    18:00 +6°C° 0 mm 7 mps 710 mmHg 78%
    19:00 +6°C° 0 mm 8 mps 709 mmHg 80%
    20:00 +6°C° 0.1 mm 8 mps 709 mmHg 80%
    21:00 +6°C° 0.1 mm 8 mps 709 mmHg 80%
    22:00 +6°C° 0.1 mm 8 mps 710 mmHg 81%
    23:00 +5°C° 1 mm 7 mps 710 mmHg 82%

    1 March, Wednesday

    Time Temperature Precipitation Wind Pressure Humidity
    00:00 +5°C° 1 mm 5 mps 710 mmHg 82%
    01:00 +4°C° 1 mm 4 mps 711 mmHg 83%
    02:00 +4°C° 0.4 mm 4 mps 711 mmHg 82%
    03:00 +3°C° 0.4 mm 4 mps 711 mmHg 81%
    04:00 +3°C° 0.4 mm 4 mps 712 mmHg 80%
    05:00 +2°C° 0.1 mm 3 mps 712 mmHg 81%
    06:00 +2°C° 0.1 mm 3 mps 713 mmHg 81%
    07:00 +2°C° 0.1 mm 3 mps 713 mmHg 81%
    08:00 +3°C° 0 mm 3 mps 714 mmHg 76%
    09:00 +4°C° 0 mm 4 mps 714 mmHg 71%
    10:00 +5°C° 0 mm 4 mps 715 mmHg 65%
    11:00 +5°C° 0 mm 4 mps 715 mmHg 62%
    12:00 +6°C° 0 mm 4 mps 715 mmHg 58%
    13:00 +7°C° 0 mm 4 mps 715 mmHg 54%
    14:00 +7°C° 0.2 mm 4 mps 715 mmHg 56%
    15:00 +7°C° 0.2 mm 4 mps 716 mmHg 58%
    16:00 +8°C° 0.2 mm 3 mps 716 mmHg 60%
    17:00 +5°C° 0.1 mm 3 mps 717 mmHg 65%
    18:00 +4°C° 0.1 mm 3 mps 717 mmHg 70%
    19:00 +4°C° 0.1 mm 2 mps 718 mmHg 75%
    20:00 +3°C° 0 mm 2 mps 718 mmHg 76%
    21:00 +3°C° 0 mm 2 mps 719 mmHg 78%
    22:00 +2°C° 0 mm 2 mps 719 mmHg 79%
    23:00 +2°C° 0 mm 2 mps 719 mmHg 79%

    2 March, Thursday

    Time Temperature Precipitation Wind Pressure Humidity
    00:00 +1°C° 0 mm 2 mps 719 mmHg 79%
    01:00 +2°C° 0 mm 1 mps 719 mmHg 79%
    02:00 +1°C° 0 mm 2 mps 719 mmHg 77%
    03:00 +2°C° 0 mm 2 mps 719 mmHg 76%
    04:00 +2°C° 0 mm 2 mps 718 mmHg 74%
    05:00 +2°C° 0 mm 2 mps 718 mmHg 75%
    06:00 +1°C° 0 mm 3 mps 718 mmHg 75%
    07:00 +1°C° 0 mm 3 mps 718 mmHg 76%
    08:00 +3°C° 0 mm 3 mps 718 mmHg 72%
    09:00 +5°C° 0 mm 4 mps 719 mmHg 68%
    10:00 +7°C° 0 mm 4 mps 719 mmHg 64%
    11:00 +7°C° 0 mm 4 mps 719 mmHg 64%
    12:00 +8°C° 0 mm 3 mps 719 mmHg 65%
    13:00 +9°C° 0 mm 3 mps 720 mmHg 65%
    14:00 +9°C° 0 mm 3 mps 720 mmHg 66%
    15:00 +9°C° 0 mm 3 mps 720 mmHg 67%
    16:00 +9°C° 0 mm 3 mps 720 mmHg 68%
    17:00 +7°C° 0 mm 2 mps 721 mmHg 73%
    18:00 +6°C° 0 mm 2 mps 721 mmHg 78%
    19:00 +5°C° 0 mm 2 mps 722 mmHg 83%
    20:00 +4°C° 0 mm 2 mps 722 mmHg 83%
    21:00 +3°C° 0 mm 3 mps 723 mmHg 83%
    22:00 +3°C° 0 mm 3 mps 723 mmHg 84%
    23:00 +2°C° 0 mm 3 mps 723 mmHg 84%

    3 March, Friday

    Time Temperature Precipitation Wind Pressure Humidity
    00:00 +3°C° 0 mm 2 mps 723 mmHg 85%
    01:00 +3°C° 0 mm 2 mps 723 mmHg 86%
    02:00 +3°C° 0 mm 2 mps 723 mmHg 87%
    03:00 +2°C° 0 mm 2 mps 723 mmHg 88%
    04:00 +3°C° 0 mm 1 mps 723 mmHg 89%
    05:00 +2°C° 0 mm 2 mps 723 mmHg 90%
    06:00 +2°C° 0 mm 2 mps 723 mmHg 91%
    07:00 +2°C° 0 mm 2 mps 723 mmHg 92%
    08:00 +2°C° 0 mm 3 mps 723 mmHg 88%
    09:00 +4°C° 0 mm 4 mps 723 mmHg 83%
    10:00 +5°C° 0 mm 5 mps 723 mmHg 79%
    11:00 +6°C° 0 mm 5 mps 723 mmHg 78%
    12:00 +7°C° 0 mm 5 mps 722 mmHg 77%
    13:00 +8°C° 0 mm 6 mps 722 mmHg 76%
    14:00 +8°C° 0 mm 6 mps 721 mmHg 77%
    15:00 +8°C° 0 mm 6 mps 721 mmHg 78%
    16:00 +8°C° 0 mm 5 mps 720 mmHg 79%
    17:00 +7°C° 0 mm 6 mps 720 mmHg 82%
    18:00 +7°C° 0 mm 6 mps 720 mmHg 85%
    19:00 +5°C° 0 mm 6 mps 720 mmHg 88%
    20:00 +5°C° 0 mm 6 mps 719 mmHg 88%
    21:00 +5°C° 0 mm 6 mps 719 mmHg 88%
    22:00 +5°C° 0 mm 6 mps 719 mmHg 88%
    23:00 +4°C° 0 mm 6 mps 719 mmHg 88%
    Show more